Regional Weather Roundup
Issued by NWS

Home | Current Version | Previous Version | Text Only | Print | Product List | Glossary Off
Versions: 1 2 3 4 5 6 7 8 9 10 11 12 13 14 15 16 17 18 19 20 21 22 23 24 25 26 27 28 29 30 31 32 33 34 35 36 37 38 39 40 41 42 43 44 45 46 47 48 49 50

408
ASUS45 KBOI 280910
RWRID

IDAHO REGIONAL WEATHER ROUNDUP
NATIONAL WEATHER SERVICE BOISE ID
300 AM MDT TUE MAR 28 2017

NOTE: "FAIR" INDICATES FEW OR NO CLOUDS BELOW 12000 FEET
WITH NO SIGNIFICANT WEATHER AND/OR OBSTRUCTIONS TO VISIBILITY

IDZ012-014-281000-
SOUTHWEST IDAHO


CITY           SKY/WX    TMP DP  RH WIND       PRES   REMARKS
BOISE          CLEAR     38  32  79 NW7       30.21R WCI  33
CALDWELL       CLEAR     37  32  82 W9        30.24R WCI  30
MOUNTAIN HOME  CLEAR     38  37  97 NW13      30.19R WCI  30
$$

IDZ016-017-281000-
SOUTHCENTRAL IDAHO


CITY           SKY/WX    TMP DP  RH WIND       PRES   REMARKS
BURLEY         PTCLDY    37  27  67 SW8G16    30.12S WCI  31
JEROME         CLEAR     34  30  85 SW13      30.13R WCI  25
TWIN FALLS     CLEAR     34  27  75 SW16      30.14R WCI  24
$$

IDZ019>023-281000-
SOUTHEAST IDAHO


CITY           SKY/WX    TMP DP  RH WIND       PRES   REMARKS
IDAHO FALLS    MOCLDY    36  35  96 S6        30.09R WCI  31
POCATELLO      PTCLDY    35  32  88 SW13      30.12R WCI  26
REXBURG        CLOUDY    36  35  96 CALM      30.07R
$$

IDZ006-010-011-018-031-032-281000-
CENTRAL IDAHO MOUNTAINS


CITY           SKY/WX    TMP DP  RH WIND       PRES   REMARKS
MCCALL         PTCLDY    28  23  81 N5        30.17R WCI  23
HAILEY         CLEAR     34  23  64 N5        30.12R WCI  30
STANLEY          N/A     22  19  89 CALM      30.16R
SALMON         CLOUDY    32  23  69 CALM      30.17S
CHALLIS        MOCLDY    31  20  63 NW3       30.15S
$$

IDZ002-004-006-007-026-281000-
NORTHERN IDAHO


CITY           SKY/WX    TMP DP  RH WIND       PRES   REMARKS
LEWISTON       PTCLDY    45  31  58 CALM      30.24R
LOWELL           N/A     39  38  96 CALM      30.29R
COEUR D`ALENE  PTCLDY    39  35  86 SE9       30.18S WCI  33
MULLAN PASS    CLOUDY    27  27 100 VRB3      30.12S FOG
$$




USA.gov is the U.S. government's official web portal to all federal, state and local government web resources and services.